Total_Precipitation_Accumulation
0.00 0.00 0.00 0.00 0.00 0.00 0.00 0.00 0.00 0.03 0.05 0.01 0.03 0.04 0.05 0.03 0.04 0.08 0.15 0.08 0.06 0.07 0.05 0.04 0.10 0.07 0.10 0.17 0.08 0.11 0.03 0.00 0.00 0.00 0.00 0.02 0.06 0.02 0.02 0.00 0.00 0.00 0.00
0.00 0.00 0.00 0.00 0.00 0.00 0.00 0.00 0.00 0.00 0.00 0.00 0.03 0.04 0.08 0.03 0.03 0.05 0.17 0.07 0.07 0.06 0.07 0.04 0.06 0.02 0.08 0.13 0.10 0.12 0.11 0.05 0.03 0.01 0.00 0.01 0.02 0.03 0.04 0.02 0.01 0.00 0.01
0.00 0.00 0.00 0.00 0.00 0.00 0.00 0.00 0.00 0.00 0.00 0.00 0.00 0.02 0.04 0.06 0.17 0.09 0.07 0.06 0.06 0.09 0.05 0.02 0.09 0.08 0.06 0.08 0.06 0.04 0.03 0.02 0.01 0.01 0.01 0.00 0.00 0.00 0.02 0.03 0.03 0.02 0.02
0.01 0.00 0.00 0.00 0.00 0.00 0.00 0.00 0.00 0.00 0.00 0.00 0.00 0.01 0.04 0.07 0.05 0.06 0.02 0.03 0.01 0.00 0.01 0.00 0.01 0.01 0.03 0.08 0.04 0.04 0.05 0.04 0.01 0.01 0.00 0.00 0.00 0.00 0.00 0.02 0.02 0.01 0.01
0.04 0.03 0.01 0.02 0.01 0.00 0.00 0.00 0.00 0.00 0.01 0.00 0.00 0.01 0.01 0.00 0.01 0.02 0.02 0.01 0.02 0.02 0.02 0.02 0.00 0.00 0.00 0.02 0.01 0.08 0.06 0.06 0.00 0.00 0.00 0.00 0.00 0.01 0.01 0.01 0.00 0.00 0.01
0.04 0.06 0.11 0.07 0.03 0.00 0.00 0.00 0.00 0.02 0.08 0.13 0.04 0.05 0.04 0.01 0.05 0.08 0.07 0.04 0.05 0.03 0.00 0.01 0.00 0.00 0.00 0.00 0.00 0.02 0.07 0.06 0.03 0.02 0.01 0.00 0.02 0.02 0.01 0.01 0.00 0.00 0.00
0.04 0.05 0.08 0.09 0.13 0.11 0.07 0.15 0.05 0.07 0.34 0.11 0.06 0.20 0.14 0.12 0.03 0.05 0.13 0.10 0.09 0.02 0.00 0.02 0.09 0.02 0.01 0.01 0.03 0.02 0.00 0.00 0.03 0.16 0.09 0.07 0.10 0.14 0.07 0.04 0.05 0.06 0.04
0.03 0.03 0.05 0.05 0.09 0.13 0.08 0.16 0.22 0.34 0.47 0.40 0.34 0.18 0.20 0.14 0.20 0.12 0.15 0.12 0.03 0.02 0.04 0.07 0.06 0.02 0.05 0.30 0.22 0.09 0.08 0.11 0.05 0.06 0.08 0.10 0.15 0.15 0.10 0.10 0.07 0.05 0.03
0.01 0.02 0.02 0.02 0.02 0.04 0.04 0.09 0.15 0.29 0.37 0.30 0.31 0.25 0.23 0.11 0.27 0.26 0.24 0.15 0.08 0.07 0.05 0.03 0.05 0.03 0.07 0.18 0.14 0.01 0.03 0.11 0.21 0.15 0.15 0.17 0.19 0.12 0.04 0.07 0.15 0.09 0.02
0.05 0.04 0.03 0.01 0.02 0.01 0.04 0.07 0.09 0.07 0.20 0.20 0.14 0.17 0.13 0.13 0.28 0.29 0.21 0.21 0.10 0.03 0.05 0.06 0.16 0.08 0.04 0.06 0.06 0.13 0.13 0.28 0.45 0.29 0.16 0.08 0.03 0.05 0.09 0.05 0.08 0.09 0.06
0.24 0.20 0.18 0.06 0.01 0.03 0.02 0.01 0.03 0.10 0.08 0.06 0.03 0.04 0.08 0.04 0.13 0.10 0.06 0.08 0.04 0.06 0.06 0.07 0.07 0.12 0.02 0.03 0.06 0.05 0.07 0.13 0.11 0.14 0.14 0.12 0.07 0.01 0.01 0.01 0.00 0.01 0.02
0.14 0.16 0.16 0.11 0.05 0.04 0.02 0.01 0.05 0.08 0.04 0.03 0.02 0.02 0.03 0.04 0.10 0.03 0.02 0.04 0.04 0.04 0.03 0.04 0.07 0.12 0.04 0.03 0.04 0.05 0.10 0.15 0.13 0.10 0.10 0.06 0.01 0.00 0.00 0.00 0.00 0.00 0.00
0.05 0.05 0.07 0.09 0.14 0.20 0.15 0.12 0.12 0.07 0.03 0.01 0.01 0.02 0.02 0.00 0.02 0.03 0.02 0.01 0.01 0.02 0.05 0.04 0.03 0.03 0.01 0.01 0.01 0.01 0.02 0.02 0.02 0.03 0.03 0.00 0.00 0.00 0.00 0.00 0.00 0.00 0.00
0.03 0.04 0.05 0.05 0.05 0.16 0.18 0.17 0.11 0.09 0.05 0.01 0.00 0.01 0.01 0.00 0.00 0.00 0.01 0.00 0.00 0.00 0.00 0.00 0.01 0.01 0.00 0.00 0.00 0.00 0.00 0.00 0.00 0.01 0.01 0.00 0.00 0.00 0.00 0.00 0.00 0.00 0.00
0.22 0.06 0.08 0.09 0.08 0.12 0.16 0.11 0.05 0.04 0.04 0.02 0.02 0.01 0.00 0.03 0.00 0.01 0.00 0.00 0.00 0.00 0.00 0.00 0.00 0.00 0.00 0.00 0.00 0.00 0.00 0.00 0.00 0.00 0.00 0.00 0.00 0.00 0.00 0.00 0.00 0.00 0.00
0.29 0.14 0.13 0.09 0.06 0.09 0.09 0.05 0.08 0.13 0.14 0.08 0.21 0.07 0.01 0.01 0.01 0.01 0.01 0.01 0.01 0.01 0.00 0.00 0.00 0.00 0.00 0.00 0.00 0.00 0.00 0.00 0.00 0.00 0.00 0.00 0.00 0.00 0.00 0.00 0.00 0.00 0.00
0.28 0.23 0.19 0.11 0.07 0.10 0.08 0.06 0.05 0.10 0.12 0.09 0.06 0.05 0.03 0.01 0.02 0.02 0.02 0.01 0.01 0.01 0.00 0.00 0.00 0.00 0.00 0.00 0.00 0.00 0.00 0.00 0.00 0.00 0.00 0.00 0.00 0.00 0.00 0.00 0.00 0.00 0.00
0.33 0.36 0.20 0.17 0.16 0.16 0.12 0.14 0.13 0.07 0.10 0.07 0.09 0.07 0.05 0.07 0.03 0.02 0.02 0.01 0.01 0.00 0.00 0.00 0.00 0.00 0.00 0.00 0.00 0.00 0.00 0.00 0.00 0.00 0.00 0.00 0.00 0.00 0.00 0.00 0.00 0.00 0.00
0.48 0.47 0.49 0.23 0.23 0.23 0.16 0.16 0.14 0.10 0.08 0.04 0.02 0.04 0.03 0.05 0.02 0.02 0.02 0.00 0.00 0.00 0.00 0.00 0.00 0.00 0.00 0.00 0.00 0.00 0.00 0.00 0.00 0.00 0.00 0.00 0.00 0.00 0.00 0.00 0.00 0.00 0.00
0.03 0.13 0.40 0.34 0.24 0.25 0.19 0.16 0.16 0.12 0.09 0.06 0.02 0.00 0.01 0.02 0.01 0.00 0.00 0.00 0.00 0.00 0.00 0.00 0.00 0.00 0.00 0.00 0.00 0.00 0.00 0.00 0.00 0.00 0.00 0.00 0.00 0.00 0.00 0.00 0.00 0.00 0.00
0.01 0.03 0.16 0.16 0.20 0.22 0.30 0.19 0.15 0.13 0.10 0.08 0.06 0.02 0.05 0.02 0.00 0.00 0.00 0.00 0.00 0.00 0.00 0.00 0.00 0.00 0.00 0.00 0.00 0.00 0.00 0.00 0.00 0.00 0.00 0.00 0.00 0.00 0.00 0.00 0.00 0.00 0.00
0.06 0.07 0.10 0.12 0.12 0.14 0.17 0.41 0.35 0.13 0.12 0.07 0.05 0.04 0.04 0.01 0.00 0.00 0.00 0.00 0.00 0.00 0.00 0.00 0.00 0.00 0.00 0.00 0.00 0.00 0.00 0.00 0.00 0.00 0.00 0.00 0.00 0.00 0.00 0.00 0.00 0.00 0.00
0.12 0.06 0.08 0.13 0.09 0.10 0.13 0.21 0.41 0.47 0.26 0.16 0.10 0.03 0.01 0.00 0.00 0.00 0.00 0.00 0.00 0.00 0.00 0.00 0.00 0.00 0.00 0.00 0.00 0.00 0.00 0.00 0.00 0.00 0.00 0.00 0.00 0.00 0.00 0.00 0.00 0.00 0.00
0.11 0.14 0.09 0.09 0.14 0.15 0.16 0.20 0.24 0.18 0.25 0.22 0.08 0.00 0.00 0.00 0.00 0.00 0.00 0.00 0.00 0.00 0.00 0.00 0.00 0.00 0.00 0.00 0.00 0.00 0.00 0.01 0.00 0.00 0.00 0.00 0.00 0.00 0.00 0.00 0.00 0.00 0.00
0.08 0.18 0.27 0.18 0.15 0.22 0.20 0.16 0.27 0.21 0.16 0.20 0.17 0.08 0.01 0.00 0.00 0.00 0.00 0.00 0.00 0.00 0.00 0.00 0.00 0.00 0.00 0.00 0.00 0.00 0.00 0.00 0.01 0.01 0.00 0.00 0.00 0.00 0.00 0.00 0.00 0.00 0.00
0.06 0.07 0.17 0.21 0.13 0.09 0.20 0.29 0.25 0.32 0.31 0.27 0.21 0.20 0.13 0.02 0.00 0.00 0.00 0.00 0.00 0.00 0.00 0.00 0.00 0.00 0.00 0.00 0.00 0.00 0.01 0.00 0.00 0.00 0.01 0.02 0.03 0.02 0.01 0.00 0.00 0.00 0.00